IRIDIUM 33 DEB

Satellite information

Favourite Embed

Satellite Type and Status

DEBRISIN ORBIT

Key statistics

Satellite IRIDIUM 33 DEB at a glance.

Uptime

10158

Days in orbit

Revolutions

≈ 14.6

Per day

Orbit

LEO

Low Earth Orbit

Inclination

86.3

Latest

Satellite identification and parameters

Extended collection of information and parameters for IRIDIUM 33 DEB.

Object identification

Identified? True

Debris? True

Object name: IRIDIUM 33 DEB

International designator: 1997-051KD

Object number (NORAD): 34652

Object ID (CCSDS): 34652

Country: UNITED STATES OF AMERICA (US)

Current information (Y/N): Y

RCS size: SMALL

Orbital parameters

Period: 98.609 minutes

Inclination: 86.3301 deg

SMA: 7070.288 km

Apoapsis: 714.163 km

Periapsis: 670.143 km

RAAN: 50.8051 deg

Eccentricy: 0.003113

Argument of periapsis: 114.9808 deg

Mean anomaly: 7.0206 deg

Mean motion: 14.60316895 rev/day

Mean motion (dot): 0.00002938 rev/day2

B* drag term: 0.00059966 1/REarth

Two-line elements (TLE)

Creation date: July 6, 2025, 6:05 p.m.

Reference frame: TEME

Reference center: EARTH

Epoch: July 6, 2025, 9:26 a.m. UTC

TLE line 0: 0 IRIDIUM 33 DEB

TLE line 1: 1 34652U 97051KD 25187.39334815 .00002938 00000-0 59966-3 0 9991

TLE line 2: 2 34652 86.3301 50.8051 0031130 114.9808 7.0206 14.60316895861576

Live tracking on map

Real-time ground track for satellite IRIDIUM 33 DEB.

In-orbit conjunctions

A list of the most updated potential collisions computed for object IRIDIUM 33 DEB.

Target Orbit TCA Probability of collision Miss distance Type
CZ-6A DEB LEO 2024-12-04 12:59:51 0.0002242008 740.0 (m) DEBRIS
CZ-6A DEB LEO 2024-11-11 11:01:06 0.0002285274 296.0 (m) DEBRIS
CZ-6A DEB LEO 2024-11-02 16:51:14 0.0001187448 411.0 (m) DEBRIS
IRIDIUM 73 LEO 2024-11-02 11:16:33 0.0001437244 250.0 (m) PAYLOAD
PSLV R/B SSO 2024-10-27 09:15:25 0.0001541591 479.0 (m) ROCKET BODY

Associated space launch

Iridium provides global mobile telecommunications services using a constellation of 66 low earth orbit satellites in a 86.4° inclined orbit. Although 77 satellites were originally envisioned for the system and spawned the name based on the 77th element in the periodic table, the system has been scaled back. Motorola's Satellite Communications Group designed and manufactured the Iridium satellites with Lockheed Martin providing the LM-700A spacecraft buses.

IRIDIUM 33 DEB was lifted into orbit during the mission ‘Proton-K/17S40 | Iridium 27 to 33’, on board a Proton-K/17S40 space rocket.

The launch took place on Sept. 14, 1997, 1:36 a.m. from 81/23 (81L).

For more information about the launch, click the button.

Launch to space Proton-K/17S40 | Iridium 27 to 33
Proton-K/17S40 | Iridium 27 to 33

Agency: N/A

Status: Launch Successful

Launch date: Sept. 14, 1997, 1:36 a.m. UTC

Rocket: Proton-K/17S40

Launch pad: 81/23 (81L)

Location: Baikonur Cosmodrome, Republic of Kazakhstan

...

Latest news about this satellite

There are no fresh news available about this satellite. Check back as we update our databases every day.


Newsletter sign-up

Weekly statistics, charts and insights to help you stay on top of the space industry.